ProjectID,Date,Electric Generation,Electric Utility Import,Facility Electric Load
,YYYY-MM-DD,kW,kW,kW
83,2012-01-11,0.0,23.28125,23.28125
83,2012-01-12,0.0,26.989583333333332,26.989583333333332
83,2012-01-13,0.0,30.4375,30.4375
83,2012-01-14,0.0,33.072916666666664,33.072916666666664
83,2012-01-15,0.0,35.020833333333336,35.020833333333336
83,2012-01-16,0.0,33.927083333333336,33.927083333333336
83,2012-01-17,0.0,35.34375,35.34375
83,2012-01-18,0.0,34.552083333333336,34.552083333333336
83,2012-01-19,0.0,33.354166666666664,33.354166666666664
83,2012-01-20,0.0,34.5,34.5
83,2012-01-21,0.0,34.21875,34.21875
83,2012-01-22,0.0,37.052083333333336,37.052083333333336
83,2012-01-23,36.989583333333336,37.520833333333336,74.51041666666667
83,2012-01-24,47.62625,34.145833333333336,81.77208333333334
83,2012-01-25,49.427083333333336,30.166666666666668,79.59375
83,2012-01-26,51.55875,30.854166666666668,82.41291666666667
83,2012-01-27,51.397083333333335,30.166666666666668,81.56375
83,2012-01-28,50.79458333333333,28.28125,79.07583333333332
83,2012-01-29,52.01791666666667,28.885416666666668,80.90333333333334
83,2012-01-30,50.13162500000001,32.260416666666664,82.39204166666667
83,2012-01-31,49.102875000000004,29.145833333333332,78.24870833333334
83,2012-02-01,50.21208333333333,25.520833333333332,75.73291666666667
83,2012-02-02,53.039208333333335,25.854166666666668,78.893375
83,2012-02-03,5.199166666666667,50.822916666666664,56.02208333333333
83,2012-02-04,0.0,52.427083333333336,52.427083333333336
83,2012-02-05,0.0,53.3125,53.3125
83,2012-02-06,32.17208333333333,39.833333333333336,72.00541666666666
83,2012-02-07,51.19920833333333,29.427083333333332,80.62629166666666
83,2012-02-08,51.92291666666667,29.947916666666668,81.87083333333334
83,2012-02-09,21.321749999999998,32.21153846153846,53.53328846153846
83,2012-02-10,30.122083333333332,28.375,58.497083333333336
83,2012-02-11,51.755374999999994,33.15625,84.91162499999999
83,2012-02-12,50.31375,39.020833333333336,89.33458333333334
83,2012-02-13,48.027458333333335,38.395833333333336,86.42329166666667
83,2012-02-14,48.855375,34.166666666666664,83.02204166666667
83,2012-02-15,48.317499999999995,33.1875,81.505
83,2012-02-16,48.898374999999994,31.260416666666668,80.15879166666666
83,2012-02-17,48.85708333333333,28.552083333333332,77.40916666666666
83,2012-02-18,48.83325,29.739583333333332,78.57283333333334
83,2012-02-19,48.99337499999999,29.15625,78.14962499999999
83,2012-02-20,47.545375,31.916666666666668,79.46204166666666
83,2012-02-21,52.53787500000001,28.208333333333332,80.74620833333334
83,2012-02-22,52.89175,25.354166666666668,78.24591666666667
83,2012-02-23,52.916666666666664,23.916666666666668,76.83333333333333
83,2012-02-24,53.226791666666664,21.854166666666668,75.08095833333333
83,2012-02-25,53.427083333333336,23.125,76.55208333333334
83,2012-02-26,53.356625,22.864583333333332,76.22120833333334
83,2012-02-27,52.431333333333335,24.8125,77.24383333333333
83,2012-02-28,51.75241666666667,24.0625,75.81491666666668
83,2012-02-29,52.85545833333333,24.354166666666668,77.209625
83,2012-03-01,52.158791666666666,24.427083333333332,76.585875
83,2012-03-02,53.11629166666666,23.125,76.24129166666665
83,2012-03-03,53.545375,22.21875,75.764125
83,2012-03-04,53.675999999999995,21.427083333333332,75.10308333333333
83,2012-03-05,52.855375,24.6875,77.54287500000001
83,2012-03-06,52.920500000000004,24.833333333333332,77.75383333333333
83,2012-03-07,51.022,23.25,74.27199999999999
83,2012-03-08,52.81133333333333,21.760416666666668,74.57175
83,2012-03-09,52.23325,21.885416666666668,74.11866666666667
83,2012-03-10,52.592999999999996,22.520833333333332,75.11383333333333
83,2012-03-11,53.10679166666667,22.739583333333332,75.84637500000001
83,2012-03-12,51.93870833333333,22.229166666666668,74.167875
83,2012-03-13,51.490833333333335,22.072916666666668,73.56375
83,2012-03-14,52.58470833333333,23.21875,75.80345833333334
83,2012-03-15,52.90758333333333,25.114583333333332,78.02216666666666
83,2012-03-16,52.78,24.364583333333332,77.14458333333333
83,2012-03-17,52.424625,24.1875,76.61212499999999
83,2012-03-18,53.21745833333333,24.645833333333332,77.86329166666667
83,2012-03-19,52.95820833333334,24.927083333333332,77.88529166666667
83,2012-03-20,52.92979166666667,25.53125,78.46104166666666
83,2012-03-21,52.54958333333334,24.5625,77.11208333333335
83,2012-03-22,52.60679166666667,25.208333333333332,77.81512500000001
83,2012-03-23,52.67070833333333,26.15625,78.82695833333332
83,2012-03-24,53.12795833333333,23.40625,76.53420833333334
83,2012-03-25,52.24970833333333,22.385416666666668,74.635125
83,2012-03-26,52.11983333333333,24.15625,76.27608333333333
83,2012-03-27,52.96104166666667,24.614583333333332,77.575625
83,2012-03-28,52.07954166666667,25.052083333333332,77.131625
83,2012-03-29,52.40358333333333,25.333333333333332,77.73691666666666
83,2012-03-30,52.15504166666667,26.34375,78.49879166666668
83,2012-03-31,53.57820833333333,25.90625,79.48445833333332
83,2012-04-01,53.18625,24.0,77.18625
83,2012-04-02,52.149875,25.635416666666668,77.78529166666667
83,2012-04-03,53.105583333333335,24.614583333333332,77.72016666666667
83,2012-04-04,52.84125,23.958333333333332,76.79958333333333
83,2012-04-05,52.98441666666667,24.520833333333332,77.50525
83,2012-04-06,53.26208333333333,23.46875,76.73083333333332
83,2012-04-07,53.439875,24.125,77.564875
83,2012-04-08,52.56516666666667,21.78125,74.34641666666667
83,2012-04-09,53.09508333333333,23.822916666666668,76.91799999999999
83,2012-04-10,52.606541666666665,23.1875,75.79404166666666
83,2012-04-11,53.53004166666667,24.854166666666668,78.38420833333333
83,2012-04-12,53.63454166666667,22.614583333333332,76.249125
83,2012-04-13,53.59866666666667,21.322916666666668,74.92158333333333
83,2012-04-14,53.705875,20.770833333333332,74.47670833333333
83,2012-04-15,53.48741666666667,21.322916666666668,74.81033333333333
83,2012-04-16,53.472375,23.8125,77.284875
83,2012-04-17,53.15270833333333,25.604166666666668,78.756875
83,2012-04-18,53.43854166666667,25.604166666666668,79.04270833333334
83,2012-04-19,53.38554166666666,24.083333333333332,77.468875
83,2012-04-20,53.60037500000001,22.947916666666668,76.54829166666667
83,2012-04-21,52.738458333333334,23.46875,76.20720833333334
83,2012-04-22,53.72533333333333,22.541666666666668,76.267
83,2012-04-23,53.326875,24.041666666666668,77.36854166666667
83,2012-04-24,53.24358333333333,23.791666666666668,77.03525
83,2012-04-25,53.522166666666664,23.9375,77.45966666666666
83,2012-04-26,53.293083333333335,24.21875,77.51183333333333
83,2012-04-27,53.56420833333333,26.34375,79.90795833333334
83,2012-04-28,53.998416666666664,26.09375,80.09216666666666
83,2012-04-29,53.66675,24.979166666666668,78.64591666666666
83,2012-04-30,53.6745,25.416666666666668,79.09116666666667
83,2012-05-01,52.938874999999996,25.65625,78.595125
83,2012-05-02,52.858125,24.864583333333332,77.72270833333333
83,2012-05-03,52.71358333333333,25.895833333333332,78.60941666666666
83,2012-05-04,52.17845833333333,24.875,77.05345833333334
83,2012-05-05,53.21883333333333,24.8125,78.03133333333332
83,2012-05-06,53.019625,24.0,77.01962499999999
83,2012-05-07,52.13291666666667,24.177083333333332,76.31
83,2012-05-08,53.06783333333333,23.916666666666668,76.9845
83,2012-05-09,52.81516666666667,27.489583333333332,80.30475
83,2012-05-10,52.46758333333333,27.1875,79.65508333333332
83,2012-05-11,52.74220833333334,27.302083333333332,80.04429166666667
83,2012-05-12,52.84125,29.322916666666668,82.16416666666667
83,2012-05-13,53.28008333333333,28.927083333333332,82.20716666666667
83,2012-05-14,52.42979166666667,28.979166666666668,81.40895833333333
83,2012-05-15,53.10820833333333,30.479166666666668,83.587375
83,2012-05-16,53.21879166666667,38.90625,92.12504166666668
83,2012-05-17,52.476625000000006,36.520833333333336,88.99745833333334
83,2012-05-18,52.66804166666666,34.09375,86.76179166666665
83,2012-05-19,53.07825,34.489583333333336,87.56783333333334
83,2012-05-20,52.333499999999994,34.90625,87.23974999999999
83,2012-05-21,52.968875,33.041666666666664,86.01054166666665
83,2012-05-22,53.1915,36.4375,89.62899999999999
83,2012-05-23,52.778708333333334,42.114583333333336,94.89329166666667
83,2012-05-24,52.75008333333333,39.28125,92.03133333333332
83,2012-05-25,52.16545833333333,38.6875,90.85295833333333
83,2012-05-26,52.65241666666666,58.0625,110.71491666666665
83,2012-05-27,52.36079166666667,62.583333333333336,114.94412500000001
83,2012-05-28,52.59125,67.15625,119.7475
83,2012-05-29,51.8165,74.08333333333333,125.89983333333333
83,2012-05-30,57.86866666666666,67.76041666666667,125.62908333333334
83,2012-05-31,57.634166666666665,66.35416666666667,123.98833333333334
83,2012-06-01,57.902458333333335,60.364583333333336,118.26704166666667
83,2012-06-02,55.83083333333334,55.989583333333336,111.82041666666667
83,2012-06-03,57.423249999999996,46.385416666666664,103.80866666666665
83,2012-06-04,57.48445833333333,38.59375,96.07820833333332
83,2012-06-05,56.73970833333333,32.864583333333336,89.60429166666667
83,2012-06-06,57.552125,40.75,98.30212499999999
83,2012-06-07,57.379,38.65625,96.03524999999999
83,2012-06-08,56.746125,39.8125,96.558625
83,2012-06-09,56.81120833333333,39.885416666666664,96.696625
83,2012-06-10,57.350500000000004,45.8125,103.16300000000001
83,2012-06-11,56.68629166666667,38.364583333333336,95.050875
83,2012-06-12,57.40895833333334,44.145833333333336,101.55479166666667
83,2012-06-13,56.60033333333333,49.625,106.22533333333334
83,2012-06-14,55.993625,48.020833333333336,104.01445833333334
83,2012-06-15,56.600291666666664,48.739583333333336,105.339875
83,2012-06-16,57.333499999999994,47.21875,104.55224999999999
83,2012-06-17,57.29054166666666,39.645833333333336,96.936375
83,2012-06-18,56.95579166666667,37.697916666666664,94.65370833333333
83,2012-06-19,57.474041666666665,48.729166666666664,106.20320833333332
83,2012-06-20,57.243541666666665,68.26041666666667,125.50395833333334
83,2012-06-21,57.52095833333333,73.71875,131.23970833333334
83,2012-06-22,56.37383333333333,73.72916666666667,130.103
83,2012-06-23,56.87508333333333,66.55208333333333,123.42716666666666
83,2012-06-24,56.98833333333334,60.78125,117.76958333333334
83,2012-06-25,57.51704166666667,48.84375,106.36079166666667
83,2012-06-26,57.045625,36.291666666666664,93.33729166666666
83,2012-06-27,57.08079166666667,43.989583333333336,101.07037500000001
83,2012-06-28,56.25266666666667,53.010416666666664,109.26308333333333
83,2012-06-29,57.011833333333335,65.125,122.13683333333333
83,2012-06-30,57.16804166666666,80.85416666666667,138.02220833333334
83,2012-07-01,57.45191666666667,85.3125,142.76441666666668
83,2012-07-02,57.22929166666666,80.08333333333333,137.312625
83,2012-07-03,56.81775,79.63541666666667,136.45316666666668
83,2012-07-04,56.674625,81.23958333333333,137.91420833333333
83,2012-07-05,56.927125,79.8125,136.739625
83,2012-07-06,56.98583333333334,76.02083333333333,133.00666666666666
83,2012-07-07,0.0,107.84375,107.84375
83,2012-07-08,45.957125,80.54166666666667,126.49879166666668
83,2012-07-09,55.871125,70.85416666666667,126.72529166666666
83,2012-07-10,57.06004166666667,70.01041666666667,127.07045833333333
83,2012-07-11,57.160333333333334,71.46875,128.62908333333334
83,2012-07-12,56.800916666666666,71.375,128.17591666666667
83,2012-07-13,57.00270833333334,74.21875,131.22145833333335
83,2012-07-14,56.836166666666664,73.77083333333333,130.607
83,2012-07-15,57.0145,74.69791666666667,131.71241666666668
83,2012-07-16,55.63041666666667,76.05208333333333,131.6825
83,2012-07-17,55.01954166666667,78.46875,133.48829166666667
83,2012-07-18,55.856875,76.92708333333333,132.78395833333332
83,2012-07-19,56.65633333333333,67.41666666666667,124.07300000000001
83,2012-07-20,55.738375,56.21875,111.95712499999999
83,2012-07-21,56.45320833333333,53.90625,110.35945833333332
83,2012-07-22,56.617416666666664,56.510416666666664,113.12783333333333
83,2012-07-23,56.195458333333335,63.864583333333336,120.06004166666668
83,2012-07-24,58.09129166666667,61.90625,119.99754166666668
83,2012-07-25,58.066541666666666,57.40625,115.47279166666667
83,2012-07-26,58.20195833333333,76.86458333333333,135.06654166666667
83,2012-07-27,58.44541666666667,84.11458333333333,142.56
83,2012-07-28,58.65116666666666,78.46875,137.11991666666665
83,2012-07-29,58.74879166666667,69.70833333333333,128.457125
83,2012-07-30,57.29695833333333,67.85416666666667,125.15112500000001
83,2012-07-31,57.93108333333333,66.54166666666667,124.47275
83,2012-08-01,58.449333333333335,70.44791666666667,128.89725
83,2012-08-02,57.5275,79.13541666666667,136.66291666666666
83,2012-08-03,58.21616666666667,80.75,138.96616666666668
83,2012-08-04,57.777458333333335,84.70833333333333,142.48579166666667
83,2012-08-05,58.29570833333333,80.66666666666667,138.962375
83,2012-08-06,57.450583333333334,72.20833333333333,129.65891666666667
83,2012-08-07,58.47920833333333,69.61458333333333,128.09379166666668
83,2012-08-08,59.1915,73.21875,132.41025
83,2012-08-09,57.34520833333334,77.02083333333333,134.36604166666666
83,2012-08-10,58.18895833333334,74.34375,132.53270833333335
83,2012-08-11,58.32566666666667,73.59375,131.91941666666668
83,2012-08-12,57.66291666666667,70.1875,127.85041666666666
83,2012-08-13,57.052125,70.875,127.92712499999999
83,2012-08-14,57.5665,69.96875,127.53524999999999
83,2012-08-15,57.785291666666666,69.55208333333333,127.337375
83,2012-08-16,57.194208333333336,65.75,122.94420833333334
83,2012-08-17,57.57304166666666,64.79166666666667,122.36470833333334
83,2012-08-18,57.58083333333334,47.697916666666664,105.27875
83,2012-08-19,57.79566666666667,46.75,104.54566666666668
83,2012-08-20,58.13941666666667,46.8125,104.95191666666668
83,2012-08-21,57.29820833333333,48.270833333333336,105.56904166666666
83,2012-08-22,57.83879166666667,52.145833333333336,109.98462500000001
83,2012-08-23,58.468875,68.07291666666667,126.54179166666667
83,2012-08-24,58.45704166666667,76.35416666666667,134.81120833333335
83,2012-08-25,58.32575,74.08333333333333,132.40908333333334
83,2012-08-26,59.07691666666667,70.83333333333333,129.91025
83,2012-08-27,49.44416666666667,76.01041666666667,125.45458333333335
83,2012-08-28,59.16020833333334,73.375,132.53520833333334
83,2012-08-29,58.993625,65.6875,124.68112500000001
83,2012-08-30,59.020875,64.89583333333333,123.91670833333333
83,2012-08-31,58.945458333333335,70.19791666666667,129.143375
83,2012-09-01,59.177166666666665,68.65625,127.83341666666666
83,2012-09-02,58.11216666666667,59.395833333333336,117.50800000000001
83,2012-09-03,55.071583333333336,59.541666666666664,114.61325
83,2012-09-04,42.92854166666667,71.02083333333333,113.949375
83,2012-09-05,29.822916666666668,80.04166666666667,109.86458333333334
83,2012-09-06,53.95325,66.57291666666667,120.52616666666667
83,2012-09-07,55.06,67.04166666666667,122.10166666666667
83,2012-09-08,55.68241666666666,64.05208333333333,119.7345
83,2012-09-09,55.702,46.5625,102.2645
83,2012-09-10,55.812625,49.260416666666664,105.07304166666665
83,2012-09-11,55.781375,50.677083333333336,106.45845833333334
83,2012-09-12,52.12916666666666,58.0625,110.19166666666666
83,2012-09-13,56.46233333333333,57.791666666666664,114.25399999999999
83,2012-09-14,56.441541666666666,59.6875,116.12904166666667
83,2012-09-15,56.38675,50.125,106.51175
83,2012-09-16,55.632958333333335,46.833333333333336,102.46629166666668
83,2012-09-17,56.51841666666667,51.854166666666664,108.37258333333332
83,2012-09-18,56.386833333333335,60.34375,116.73058333333333
83,2012-09-19,55.977916666666665,44.84375,100.82166666666666
83,2012-09-20,55.696625000000004,44.1875,99.88412500000001
83,2012-09-21,56.53266666666667,47.541666666666664,104.07433333333333
83,2012-09-22,56.496208333333335,55.09375,111.58995833333333
83,2012-09-23,56.429833333333335,41.510416666666664,97.94024999999999
83,2012-09-24,56.476708333333335,37.489583333333336,93.96629166666668
83,2012-09-25,56.46241666666666,41.375,97.83741666666666
83,2012-09-26,50.78791666666667,52.260416666666664,103.04833333333333
83,2012-09-27,43.74625,60.3125,104.05875
83,2012-09-28,56.401125,51.041666666666664,107.44279166666666
83,2012-09-29,22.66933333333333,52.75,75.41933333333333
83,2012-09-30,0.0,62.697916666666664,62.697916666666664
83,2012-10-01,41.82029166666667,40.541666666666664,82.36195833333333
83,2012-10-02,52.494875,30.03125,82.52612500000001
83,2012-10-03,51.77225000000001,47.614583333333336,99.38683333333334
83,2012-10-04,51.454499999999996,58.927083333333336,110.38158333333334
83,2012-10-05,51.685,57.822916666666664,109.50791666666666
83,2012-10-06,51.60154166666666,50.364583333333336,101.966125
83,2012-10-07,52.182375,38.364583333333336,90.54695833333334
83,2012-10-08,51.567708333333336,40.979166666666664,92.546875
83,2012-10-09,51.132958333333335,34.427083333333336,85.56004166666668
83,2012-10-10,15.656291666666666,49.239583333333336,64.895875
83,2012-10-11,37.99883333333333,37.979166666666664,75.978
83,2012-10-12,35.376375,39.65625,75.032625
83,2012-10-13,46.662791666666664,37.25,83.91279166666666
83,2012-10-14,0.0,57.354166666666664,57.354166666666664
83,2012-10-15,0.0,66.23958333333333,66.23958333333333
83,2012-10-16,0.0,55.479166666666664,55.479166666666664
83,2012-10-17,25.69275,43.083333333333336,68.77608333333333
83,2012-10-18,49.95708333333334,31.479166666666668,81.43625
83,2012-10-19,49.31391666666667,29.84375,79.15766666666667
83,2012-10-20,50.832166666666666,30.822916666666668,81.65508333333334
83,2012-10-21,33.80341666666667,37.645833333333336,71.44925
83,2012-10-22,50.00133333333333,29.354166666666668,79.35549999999999
83,2012-10-23,37.332208333333334,33.916666666666664,71.248875
83,2012-10-24,49.329499999999996,28.90625,78.23575
83,2012-10-25,49.355625,28.135416666666668,77.49104166666667
83,2012-10-26,48.11079166666667,30.083333333333332,78.194125
83,2012-10-27,49.52225000000001,30.677083333333332,80.19933333333334
83,2012-10-28,50.05866666666666,29.8125,79.87116666666665
83,2012-10-29,49.68620833333333,27.5,77.18620833333333
83,2012-10-30,49.534,27.489583333333332,77.02358333333333
83,2012-10-31,50.910291666666666,28.385416666666668,79.29570833333334
83,2012-11-01,50.24100000000001,29.583333333333332,79.82433333333334
83,2012-11-02,50.429875,30.791666666666668,81.22154166666667
83,2012-11-03,49.61470833333333,31.010416666666668,80.625125
83,2012-11-04,50.520833333333336,30.333333333333332,80.85416666666667
83,2012-11-05,50.108125,30.177083333333332,80.28520833333333
83,2012-11-06,50.59641666666667,29.770833333333332,80.36725
83,2012-11-07,49.62379166666667,30.541666666666668,80.16545833333333
83,2012-11-08,50.62508333333333,30.645833333333332,81.27091666666666
83,2012-11-09,50.21104166666667,29.239583333333332,79.450625
83,2012-11-10,50.449333333333335,25.552083333333332,76.00141666666667
83,2012-11-11,50.209833333333336,23.541666666666668,73.75150000000001
83,2012-11-12,49.802125,22.197916666666668,72.00004166666666
83,2012-11-13,50.12258333333333,26.239583333333332,76.36216666666667
83,2012-11-14,50.389375,26.010416666666668,76.39979166666667
83,2012-11-15,50.254083333333334,25.4375,75.69158333333334
83,2012-11-16,50.26304166666667,23.395833333333332,73.65887500000001
83,2012-11-17,50.34908333333333,27.729166666666668,78.07825
83,2012-11-18,50.45191666666667,30.604166666666668,81.05608333333333
83,2012-11-19,50.277458333333335,32.645833333333336,82.92329166666667
83,2012-11-20,49.518375,28.552083333333332,78.07045833333333
83,2012-11-21,49.303583333333336,26.354166666666668,75.65775000000001
83,2012-11-22,49.99491666666666,26.0,75.99491666666665
83,2012-11-23,49.16675,27.28125,76.44800000000001
83,2012-11-24,50.332166666666666,32.229166666666664,82.56133333333332
83,2012-11-25,50.62633333333333,33.9375,84.56383333333332
83,2012-11-26,50.62775,33.9375,84.56524999999999
83,2012-11-27,50.62770833333334,35.375,86.00270833333335
83,2012-11-28,50.80220833333333,34.65625,85.45845833333334
83,2012-11-29,50.55745833333333,36.104166666666664,86.66162499999999
83,2012-11-30,50.42195833333333,38.25,88.67195833333332
83,2012-12-01,50.670625,37.489583333333336,88.16020833333334
83,2012-12-02,50.18241666666666,35.03125,85.21366666666665
83,2012-12-03,49.29566666666667,32.083333333333336,81.379
83,2012-12-04,49.319041666666664,31.677083333333332,80.99612499999999
83,2012-12-05,50.22537500000001,32.177083333333336,82.40245833333334
83,2012-12-06,50.04045833333333,30.479166666666668,80.519625
83,2012-12-07,49.21633333333333,30.21875,79.43508333333332
83,2012-12-08,50.64066666666667,28.052083333333332,78.69275
83,2012-12-09,50.67195833333333,27.364583333333332,78.03654166666666
83,2012-12-10,50.26175,26.9375,77.19925
83,2012-12-11,50.539125000000006,30.40625,80.94537500000001
83,2012-12-12,50.51058333333333,28.416666666666668,78.92725
83,2012-12-13,50.360749999999996,27.479166666666668,77.83991666666667
83,2012-12-14,29.518333333333334,37.90625,67.42458333333333
83,2012-12-15,34.0105,35.614583333333336,69.62508333333334
83,2012-12-16,32.63429166666666,37.333333333333336,69.967625
83,2012-12-17,32.17070833333333,38.447916666666664,70.618625
83,2012-12-18,33.392125,36.09375,69.485875
83,2012-12-19,33.808708333333335,37.635416666666664,71.444125
83,2012-12-20,39.73445833333333,32.78125,72.51570833333332
83,2012-12-21,41.079541666666664,33.385416666666664,74.46495833333333
83,2012-12-22,43.86470833333333,35.416666666666664,79.281375
83,2012-12-23,39.92583333333334,37.5,77.42583333333334
83,2012-12-24,41.243541666666665,34.447916666666664,75.69145833333333
83,2012-12-25,35.902458333333335,35.760416666666664,71.662875
83,2012-12-26,40.88279166666667,40.260416666666664,81.14320833333333
83,2012-12-27,41.880291666666665,42.666666666666664,84.54695833333332
83,2012-12-28,44.062625,39.71875,83.781375
83,2012-12-29,39.89983333333333,40.260416666666664,80.16024999999999
83,2012-12-30,15.280000000000001,57.947916666666664,73.22791666666666
83,2012-12-31,0.0,64.29166666666667,64.29166666666667
83,2013-01-01,0.0,62.4375,62.4375
83,2013-01-02,24.731875000000002,52.53125,77.263125
83,2013-01-03,47.18116666666666,40.708333333333336,87.8895
83,2013-01-04,46.580875,38.375,84.95587499999999
83,2013-01-05,46.66158333333333,38.114583333333336,84.77616666666667
83,2013-01-06,46.738458333333334,33.510416666666664,80.248875
83,2013-01-07,44.459624999999996,35.197916666666664,79.65754166666666
83,2013-01-08,41.78145833333333,37.645833333333336,79.42729166666666
83,2013-01-09,43.653708333333334,35.791666666666664,79.445375
83,2013-01-10,44.78520833333334,36.770833333333336,81.55604166666667
83,2013-01-11,43.526041666666664,34.666666666666664,78.19270833333333
83,2013-01-12,47.657624999999996,28.822916666666668,76.48054166666667
83,2013-01-13,48.2775,27.489583333333332,75.76708333333333
83,2013-01-14,46.735749999999996,28.59375,75.3295
83,2013-01-15,46.1655,29.9375,76.10300000000001
83,2013-01-16,44.572916666666664,33.71875,78.29166666666666
83,2013-01-17,45.66941666666667,35.541666666666664,81.21108333333333
83,2013-01-18,44.74879166666667,38.854166666666664,83.60295833333333
83,2013-01-19,45.458416666666665,33.96875,79.42716666666666
83,2013-01-20,45.20979166666667,38.020833333333336,83.230625
83,2013-01-21,49.32041666666667,38.145833333333336,87.46625
83,2013-01-22,47.48320833333333,43.927083333333336,91.41029166666667
83,2013-01-23,47.73833333333334,44.666666666666664,92.405
83,2013-01-24,47.02741666666666,42.21875,89.24616666666665
83,2013-01-25,47.552125,42.09375,89.64587499999999
83,2013-01-26,45.082125,45.770833333333336,90.85295833333333
83,2013-01-27,46.727916666666665,44.75,91.47791666666666
83,2013-01-28,45.15895833333334,42.572916666666664,87.731875
83,2013-01-29,44.00925,36.520833333333336,80.53008333333334
83,2013-01-30,43.174625,34.458333333333336,77.63295833333333